Weather History for KLRD - December, 2013

Change the Weather History Date:

Monday, December 2, 2013

  Actual Average Record
Temperature  
Mean Temperature 69 °F 60 °F  
Max Temperature 83 °F 70 °F 91 °F (1921)
Min Temperature 54 °F 49 °F 30 °F (1911)
Degree Days  
Heating Degree Days 0 7  
Month to date heating degree days 0 14  
Since 1 July heating degree days 165 129  
Cooling Degree Days 4 2  
Month to date cooling degree days 6 4  
Year to date cooling degree days 4488 4259  
Growing Degree Days 18 (Base 50)    
Moisture  
Dew Point 57 °F    
Average Humidity 87    
Maximum Humidity 100    
Minimum Humidity 41    
Precipitation  
Precipitation 0.00 in 0.03 in 1.17 in (1989)
Month to date precipitation 0.00 0.06  
Year to date precipitation 20.40 19.38  
Sea Level Pressure  
Sea Level Pressure 29.89 in    
Wind  
Wind Speed 3 mph (SSW)    
Max Wind Speed 12 mph    
Max Gust Speed 13 mph    
Visibility 5 miles    
Events Fog , Rain    
T = Trace of Precipitation, MM = Missing Value Source: NWS Daily Summary

Daily Weather History Graph

Daily Weather History Graph

Search for Another Location

Airport or City:

Trip Planner

Search our weather history database for the weather conditions in past years. The results will help you decide how hot, cold, wet, or windy it might be!

Date:

Astronomy

Dec. 02, 2013 Rise Set
Actual Time 7:11 AM CST 5:42 PM CST
Civil Twilight 6:46 AM CST 6:08 PM CST
Nautical Twilight 6:17 AM CST 6:37 PM CST
Astronomical Twilight 5:49 AM CST 7:05 PM CST
Moon 6:42 AM CST (12/2) 5:44 PM CST (12/2)
Length of Visible Light 11h 21m
Length of Day
10h 30m
Waning Crescent, 0% of the Moon is Illuminated
Dec 2
Waning Crescent
Dec 2
New
Dec 9
First Quarter
Dec 17
Full
Dec 25
Last Quarter

Hourly Weather History & Observations

Time (CST) Temp. Heat Index Dew Point Humidity Pressure Visibility Wind Dir Wind Speed Gust Speed Precip Events Conditions
12:56 AM 57.9 °F - 55.9 °F 93% 29.96 in 10.0 mi SSE 4.6 mph - N/A   Clear
1:56 AM 59.0 °F - 59.0 °F 100% 29.94 in 10.0 mi South 4.6 mph - N/A   Clear
2:56 AM 56.8 °F - 56.8 °F 100% 29.93 in 9.0 mi Calm Calm - N/A   Clear
3:12 AM 55.4 °F - 55.4 °F 100% 29.95 in 1.2 mi Calm Calm - N/A   Clear
3:14 AM 55.4 °F - 55.4 °F 100% 29.95 in 0.8 mi Calm Calm - N/A   Clear
3:17 AM 55.4 °F - 55.4 °F 100% 29.95 in 0.5 mi Calm Calm - 0.00 in Fog , Rain Light Rain
3:28 AM 55.4 °F - 55.4 °F 100% 29.95 in 1.0 mi Calm Calm - 0.00 in Rain Light Rain
3:31 AM 55.4 °F - 55.4 °F 100% 29.95 in 2.5 mi Calm Calm - 0.00 in Rain Light Rain
3:38 AM 57.2 °F - 57.2 °F 100% 29.95 in 6.0 mi Calm Calm - 0.00 in   Mostly Cloudy
3:56 AM 57.9 °F - 57.9 °F 100% 29.93 in 7.0 mi Calm Calm - 0.00 in   Overcast
4:07 AM 57.2 °F - 57.2 °F 100% 29.95 in 6.0 mi Calm Calm - N/A   Overcast
4:31 AM 57.2 °F - 57.2 °F 100% 29.94 in 2.0 mi Calm Calm - N/A   Overcast
4:33 AM 57.2 °F - 57.2 °F 100% 29.94 in 1.0 mi Calm Calm - N/A   Overcast
4:36 AM 57.2 °F - 57.2 °F 100% 29.94 in 0.5 mi Calm Calm - N/A Fog Fog
4:45 AM 57.2 °F - 57.2 °F 100% 29.94 in - Calm Calm - N/A   Overcast
4:56 AM 57.9 °F - 57.9 °F 100% 29.91 in - Calm Calm - N/A   Overcast
5:04 AM 57.2 °F - 57.2 °F 100% 29.93 in 0.2 mi Calm Calm - N/A Fog Fog
5:56 AM 54.9 °F - 54.9 °F 100% 29.90 in 0.2 mi Calm Calm - 0.00 in Fog , Rain Light Rain
6:06 AM 55.4 °F - 55.4 °F 100% 29.92 in 0.5 mi Calm Calm - 0.00 in Fog , Rain Light Rain
6:13 AM 55.4 °F - 55.4 °F 100% 29.91 in 0.2 mi Calm Calm - 0.00 in Fog , Rain Light Rain
6:56 AM 54.9 °F - 54.9 °F 100% 29.90 in 0.2 mi Calm Calm - 0.00 in Fog Fog
7:06 AM 53.6 °F - 53.6 °F 100% 29.93 in 0.2 mi Calm Calm - N/A Fog Fog
7:37 AM 53.6 °F - 53.6 °F 100% 29.94 in 0.2 mi Calm Calm - N/A Fog Fog
7:56 AM 54.9 °F - 54.9 °F 100% 29.92 in 0.2 mi Calm Calm - N/A Fog Fog
8:21 AM 55.4 °F - 55.4 °F 100% 29.95 in 0.2 mi Calm Calm - N/A Fog Fog
8:36 AM 55.4 °F - 55.4 °F 100% 29.94 in 0.2 mi Calm Calm - N/A Fog Fog
8:56 AM 56.8 °F - 56.8 °F 100% 29.92 in 0.2 mi Calm Calm - N/A Fog Fog
9:02 AM 57.2 °F - 57.2 °F 100% 29.94 in 0.8 mi Calm Calm - N/A   Overcast
9:05 AM 57.2 °F - 57.2 °F 100% 29.95 in 1.5 mi Calm Calm - N/A   Overcast
9:10 AM 57.2 °F - 57.2 °F 100% 29.95 in 3.0 mi Calm Calm - N/A   Overcast
9:56 AM 59.9 °F - - N/A% 29.93 in 6.0 mi Calm Calm - N/A   Haze
10:56 AM 70.9 °F - 57.9 °F 63% 29.91 in 10.0 mi West 5.8 mph - N/A   Clear
11:56 AM 72.9 °F - 56.8 °F 57% 29.88 in 10.0 mi Calm Calm - N/A   Clear
12:56 PM 77.9 °F - 57.9 °F 50% 29.83 in 10.0 mi SSW 4.6 mph - N/A   Clear
1:56 PM 79.9 °F - 57.9 °F 47% 29.79 in 10.0 mi WSW 4.6 mph - N/A   Clear
2:56 PM 81.9 °F 81.8 °F 57.9 °F 44% 29.77 in 10.0 mi SW 5.8 mph - N/A   Clear
3:56 PM 82.9 °F 82.4 °F 56.8 °F 41% 29.75 in 10.0 mi SSW 5.8 mph - N/A   Clear
4:56 PM 79.9 °F - 57.9 °F 47% 29.74 in 10.0 mi South 8.1 mph - N/A   Clear
5:56 PM 73.9 °F - 57.9 °F 57% 29.75 in 10.0 mi Calm Calm - N/A   Clear
6:56 PM 70.0 °F - 57.9 °F 65% 29.75 in 10.0 mi Calm Calm - N/A   Clear
7:56 PM 70.0 °F - 57.9 °F 65% 29.75 in 10.0 mi South 11.5 mph - N/A   Clear
8:56 PM 66.9 °F - 55.9 °F 68% 29.77 in 10.0 mi South 5.8 mph - N/A   Clear
9:56 PM 65.8 °F - 54.0 °F 65% 29.77 in 10.0 mi Calm Calm - N/A   Clear
10:56 PM 64.9 °F - 55.9 °F 73% 29.75 in 10.0 mi Calm Calm - N/A   Clear
11:56 PM 61.9 °F - 57.9 °F 87% 29.73 in 10.0 mi ESE 5.8 mph - N/A   Clear